www.pogodaiklimat.ru

Погода и климат >> Архив погоды >> Россия >> Ставропольский край >> Минеральные Воды


АРХИВ ПОГОДЫ в Минеральных Водах

Время (UTC), дата Ветер
(напр.,м/с)
 
Видим.   Явления Облачность Т
(С)
Тd
(С)
f
(%)
Тe
(С)
Тes
(С)
Комфортность P
(гПа)
Po
(гПа)
Тmin
(С)
Tmax
(С)
R
(мм)
R24
(мм)
S
(см)
18 10.07 В 2 10 км ясно +29.7 +15.6 42 +32 +32 душно 1009.1 974.1
21 10.07 В 1 10 км ясно +25.5 +16.7 58 +29 +29 душно 1009.6 974.1
00 11.07 В 2 10 км ясно +23.9 +17.4 67 +28 +28 душно 1009.1 973.5
03 11.07 СВ 2 20 км ясно +22.8 +17.1 70 +19 +21 по сезону 1009.1 973.3 +22.0
06 11.07 СВ 4 20 км ясно +30.6 +16.2 42 +34 +41 очень
душно
1007.2 972.4
09 11.07 В 5
{11}
20 км 3/0
[Ac cast]
+34.9 +15.3 31 +37 +45 очень
душно
1006.1 971.8
12 11.07 СВ 4 20 км ясно +37.6 +13.8 24 +38 +46 очень
жарко
1004.7 970.7
15 11.07 В 3 20 км ясно +36.9 +12.5 23 +37 +38 очень
жарко
1004.5 970.4 +38.0
18 11.07 штиль 0 10 км ясно +27.8 +16.5 50 +31 +31 душно 1006.2 971.5
21 11.07 ЮЗ 5 10 км ясно +28.9 +18.9 55 +34 +34 очень
душно
1006.9 972.0
00 12.07 ЮЗ 5
{10}
10 км ясно +27.1 +19.5 63 +33 +33 очень
душно
1007.4 972.2
03 12.07 ЮЗ 4
{10}
20 км ясно +26.7 +19.6 65 +32 +33 очень
душно
1008.0 972.8 +25.9
06 12.07 З 2 20 км ясно +31.2 +19.5 50 +37 +48 очень
душно
1007.1 972.4
09 12.07 З 3 20 км 6/4 1000 м
[Cu hum Ac trans]
+34.1 +17.8 38 +38 +46 очень
душно
1006.1 971.7
12 12.07 СЗ 1 20 км 9/9 1000 м
[Cu med, cong]
+35.5 +17.9 35 +39 +39 очень
душно
1005.5 971.2
15 12.07 СЗ 1 20 км 9/9 1000 м
[Sc]
+34.0 +15.5 33 +36 +36 душно 1005.0 970.6 +35.7
18 12.07 ЮЗ 1 10 км 6/6 1000 м
[Sc]
+28.5 +16.0 47 +32 +32 душно 1006.6 971.1
21 12.07 З 2
{18}
10 км {гроза} 10/10 1000 м
[Cb cap]
+22.6 +19.7 84 +29 +29 очень
душно
1008.4 972.7
00 13.07 ЮЗ 2 10 км в посл. час ливневой дождь {гроза} 10/10 1000 м
[Cb cap]
+21.0 +19.5 91 +26 +26 душно 1008.6 972.7
03 13.07 З 2 20 км 10/10 1000 м
[Sc]
+22.0 +19.5 86 +28 +28 душно 1008.8 973.0 +20.6 5
06 13.07 З 1 20 км 8/4 1000 м
[Sc Ac trans Ci fib]
+28.9 +19.2 56 +34 +40 очень
душно
1007.4 972.5
09 13.07 Ю 1 20 км 8/6 1000 м
[Sc Ac trans]
+31.4 +16.2 40 +34 +41 душно 1006.6 971.9
12 13.07 В 1 20 км в посл. час ливневой дождь 8/8 1000 м
[Cb cap]
+33.1 +15.3 34 +35 +38 душно 1004.9 970.4
15 13.07 С 2 20 км {ливн. осадки} 10/5 1000 м
[Sc diur, vesp Ac As]
+28.1 +17.6 53 +32 +33 душно 1005.7 970.7 +33.7
18 13.07 З 1 10 км {гроза} 8/8 1000 м
[]
+24.2 +18.2 69 +29 +29 душно 1007.0 971.5
21 13.07 З 1 10 км 10/10 1000 м
[Sc]
+23.7 +18.5 73 +28 +28 душно 1006.3 970.8
00 14.07 З 1 10 км 6/6 1000 м
[Sc]
+21.8 +17.9 79 +26 +26 душно 1005.8 970.0
03 14.07 З 1 20 км 8/8 1000 м
[Sc]
+22.0 +18.4 80 +27 +27 душно 1005.6 969.9 +21.1
06 14.07 ЮЗ 3 20 км гроза без осадков 10/10 1000 м
[Cb cap]
+24.8 +16.6 60 +28 +28 жарко 1005.3 969.9
09 14.07 В 2 20 км {гроза, ливн. осадки} 10/10 1000 м
[Sc]
+26.4 +17.2 57 +30 +30 душно 1005.4 970.2
12 14.07 СВ 2 20 км {гроза, ливн. осадки} 9/6 1000 м
[Sc Ac trans]
+28.8 +16.5 47 +32 +35 душно 1003.6 968.7
15 14.07 штиль 0 20 км 9/4 1000 м
[Sc Ac trans]
+27.3 +16.7 52 +31 +32 душно 1002.4 968.0 +28.9 0.3
18 14.07 штиль 0 10 км 8/0
[Ac trans]
+22.9 +17.3 71 +28 +28 душно 1003.5 968.0
21 14.07 З 1 10 км 8/0
[Ac trans]
+21.7 +17.3 76 +26 +26 душно 1004.1 968.4
00 15.07 ЮЗ 4 10 км 9/0
[Ac trans]
+22.3 +16.6 70 +27 +27 душно 1003.6 968.0
03 15.07 З 2 20 км 10/10 1000 м
[Sc]
+21.2 +16.2 73 +25 +25 комфорт 1004.0 968.3 +21.2
06 15.07 З 3 20 км 9/4 1500 м
[Sc Ac trans]
+25.0 +16.1 58 +28 +31 жарко 1003.8 968.5 +21.1
09 15.07 З 3 20 км 10/10 1000 м
[Sc]
+26.3 +15.8 52 +29 +29 жарко 1003.6 968.4
12 15.07 ЮЗ 3 20 км 10/10 1000 м
[Sc]
+24.6 +16.5 61 +28 +28 душно 1003.8 968.4
15 15.07 ЮЗ 4 20 км 10/10 1000 м
[Sc]
+22.9 +16.2 66 +27 +27 душно 1004.5 968.9 +26.8
18 15.07 ЮЗ 3 10 км {ливн. осадки} ясно +20.4 +16.6 79 +24 +24 комфорт 1005.5 969.6
21 15.07 ЮЗ 6-10
{11}
10 км 10/10 1000 м
[Sc]
+20.6 +14.7 69 +23 +23 комфорт 1005.3 969.3
00 16.07 З 3
{10}
10 км 10/10 1000 м
[Sc]
+19.5 +14.7 74 +21 +21 комфорт 1006.2 970.1
03 16.07 З 2 20 км в посл. час ливневой дождь 6/5 1000 м
[Sc Ac lent]
+18.6 +15.1 80 +20 +20 по сезону 1006.2 970.0 +17.7 0.6
06 16.07 ЮЗ 4 20 км {ливн. осадки} 4/3 1000 м
[Sc Ac cast Ci fib]
+24.8 +13.9 51 +27 +32 жарко 1005.0 969.5
09 16.07 З 3
{10}
20 км 6/6 1000 м
[Cu med, cong]
+27.0 +13.4 43 +29 +35 жарко 1004.2 969.0
12 16.07 З 2
{11}
20 км 6/6 1000 м
[Cu med, cong]
+29.3 +11.1 32 +30 +35 жарко 1003.3 968.4
15 16.07 ЮЗ 4
{10}
20 км 10/10 1000 м
[Sc]
+24.1 +12.0 47 +26 +26 жарко 1005.3 969.7 +29.9
18 16.07 штиль 0 10 км 4/4 1000 м
[Sc]
+20.7 +14.4 67 +23 +23 комфорт 1006.7 970.8
21 16.07 штиль 0 10 км ясно +18.0 +14.5 80 +18 +18 по сезону 1007.4 971.1
00 17.07 штиль 0 10 км ясно +16.0 +14.2 89 +16 +16 по сезону 1007.6 971.0
03 17.07 З 1 20 км ясно +16.0 +14.1 88 +17 +18 прохладно 1007.4 970.8 +14.7
06 17.07 З 1 20 км 8/5 1000 м
[Cu med, cong Ci]
+25.2 +14.4 51 +28 +33 жарко 1006.6 971.2
09 17.07 В 1 20 км 8/6 1000 м
[Sc Ci]
+28.7 +9.6 30 +29 +37 жарко 1005.5 970.4
12 17.07 С 1 20 км 6/6 1000 м
[Cu med, cong]
+30.6 +8.6 25 +30 +35 жарко 1004.3 969.5

 

Местоположение метеостанции Минеральные Воды (Ставропольский край, Россия): широта 44.22 долгота 43.10 высота над уровнем моря 313 м.

В архиве по умолчанию представлена погода в Минеральных Водах за последнюю неделю. Архивные данные за месяц целиком и за предыдущие месяцы, начиная с января 2011 года, Вы можете получить, выбрав интересующий диапазон дат из раскрывающегося списка и нажав кнопку "Ввод!".


*Определитесь, кто Вы:
робот инопланетянин человек

Внимание! Время в таблицах - всемирное. Для получения местного времени необходимо прибавить поправку, которая в Минеральных Водах равна 3 ч.

Смотрите также архив погоды в соседних городах и на ближайших метеорологических станциях:

Погода в Георгиевске (Ставропольский край, Россия) (30 км)
Погода в Кисловодске (Ставропольский край, Россия) (47 км)
Погода в Александровском (Ставропольский край, Россия) (56 км)
Погода в Шаджатмазе (Карачаево-Черкессия, Россия) (64 км)
Погода в Зеленокумске (Ставропольский край, Россия) (66 км)
Погода в Черкесске (Карачаево-Черкессия, Россия) (82 км)
Погода в Нальчике (Кабардино-Балкария, Россия) (88 км)
Погода в Прохладный (Кабардино-Балкария, Россия) (92 км)
Погода в Тырныаузе (Кабардино-Балкария, Россия) (95 км)
Погода в Невинномысске (Ставропольский край, Россия) (101 км)

Пояснения к столбцам:

Ветер - указаны скорость ветра в м/с - средняя за 10 мин, порывы в срок и между сроками (в фигурных скобках) и направление, откуда дует ветер: С - северный, СВ - северо-восточный, В - восточный, ЮВ - юго-восточный, Ю - южный, ЮЗ - юго-западный, З - западный, СЗ - северо-западный.
Видимость - горизонтальная дальность видимости в метрах или километрах. При видимости от 1 до 10 км при отсутствии осадков обычно наблюдается дымка, при ухудшении видимости до 1 км и менее - туман. В сухую погоду видимость может ухудшаться дымом, пылью или мглою.
Явления - указаны атмосферные явления, наблюдавшиеся в срок или в последний час перед сроком; фигурными скобками обозначены явления, наблюдавшиеся между сроками (за 1-3 часа до срока); квадратными скобками обозначены град или гололедные отложения с указанием их диаметра в мм.
Облачность - указаны через наклонную черту общая и нижняя облачность в баллах и высота нижней границы облаков в метрах; квадратными скобками обозначены формы облаков: Ci - перистые, Cs - перисто-слоистые, Cc - перисто-кучевые, Ac - высококучевые, As - высокослоистые, Sc - слоисто-кучевые, Ns - слоисто-дождевые, Cu - кучевые, Cb - кучево-дождевые. Подробнее классификацию облаков см. в Атласе облаков (PDF).
T - Температура воздуха - температура, измеренная на высоте 2 м над землей.
Td - Температура точки росы - температура, при понижении до которой содержащийся в воздухе водяной пар достигнет насыщения.
f - Относительная влажность воздуха - влажноcть воздуха, измеренная на высоте 2 м над землей.
Te - Эффективная температура - температура, которую ощущает одетый по сезону человек в тени. Характеристика душности погоды. При расчете учитывается влияние влажности воздуха и скорости ветра на теплоощущения человека.
Tes - Эффективная температура на солнце - температура, которую ощущает человек, с поправкой на солнечный нагрев. Характеристика знойности погоды. Зависит от высоты солнца над горизонтом, облачности и скорости ветра. Ночью, в пасмурную погоду, а также при ветре 12 м/с и более поправка равна нулю.
P - Атмосферное давление - приведенное к уровню моря атмосферное давление.
Po - Атмосферное давление - измеренное на уровне метеостанции атмосферное давление.
Tmin - Минимальная температура - минимум температуры воздуха на высоте 2 м над землей.
Tmax - Максимальная температура - максимум температуры воздуха на высоте 2 м над землей.
R - Количество осадков - Количество выпавших осадков за период времени, мм. При наведении курсора мыши на число - период времени, за который выпало указанное количество осадков.
R24 - Количество осадков - Количество выпавших осадков за 24 часа, мм.
S - Снежный покров - Высота снежного покрова, см. При наведении курсора мыши на число - состояние снежного покрова и степень покрытия местности в баллах.